Regional Weather Roundup
Issued by NWS

Home | Current Version | Previous Version | Text Only | Print | Product List | Glossary On
Versions: 1 2 3 4 5 6 7 8 9 10 11 12 13 14 15 16 17 18 19 20 21 22 23 24 25 26 27 28 29 30 31 32 33 34 35 36 37 38 39 40 41 42 43 44 45 46 47 48 49 50
000
ASUS43 KMPX 252310
RWRMN
WEATHER ROUNDUP FOR MINNESOTA
NATIONAL WEATHER SERVICE TWIN CITIES/CHANHASSEN MN
600 PM CDT WED MAY 25 2016


NOTE: "FAIR" INDICATES FEW OR NO CLOUDS BELOW 12,000 FEET WITH NO
SIGNIFICANT WEATHER AND/OR OBSTRUCTIONS TO VISIBILITY. N/A MEANS
CURRENT SKY AND/OR WEATHER CONDITIONS ARE NOT AVAILABLE.

MNZ060>063-068>070-260000-
   Twin Cities Metro

CITY           SKY/WX    TMP DP  RH WIND       PRES   REMARKS
TWIN CITIES    CLOUDY    74  63  68 VRB5      29.79F
ST PAUL        MOSUNNY   72  63  73 VRB3      29.80S
CRYSTAL        CLOUDY    75  61  61 S7        29.77F
BLAINE         PTSUNNY   75  64  69 SE7       29.79F
EDEN PRAIRIE   CLOUDY    76  65  68 S6        29.78F
SOUTH ST PAUL  CLOUDY    72  63  72 CALM      29.79F
LAKE ELMO      FAIR      72  63  73 S5        29.81F
$$
MNZ001>005-007-008-013>017-022>024-027-028-260000-
   Northwest Minnesota

CITY           SKY/WX    TMP DP  RH WIND       PRES   REMARKS
BEMIDJI        DRIZZLE   60  57  89 SE15G21   29.76S
HALLOCK        LGT RAIN  57  55  94 NE16      29.75F
ROSEAU         LGT RAIN  59  54  82 E14       29.79F
WARROAD        RAIN      57  54  88 NE12      29.82F
THIEF RVR FALL CLOUDY    61  55  82 E17G28    29.72S
CROOKSTON      CLOUDY    61  59  94 SE14G20   29.68F
FOSSTON        RAIN      59  57  94 E10G18    29.71S
DETROIT LAKES  SUNNY     70  59  68 SW22G28   29.74R
MOORHEAD       SUNNY     66  61  82 W18       29.73R
PARK RAPIDS    CLOUDY    65  61  87 S12       29.77R
MAHNOMEN       CLOUDY    65  62  89 S13G18    29.70S
$$
MNZ006-009>011-018-025>026-260000-
   North Central Minnesota

CITY           SKY/WX    TMP DP  RH WIND       PRES   REMARKS
BAUDETTE       LGT RAIN  60  57  89 E13       29.80F
FLAG ISLAND    LGT RAIN  61  55  82 E8        29.83F
INTL FALLS     LGT RAIN  66  53  63 E9        29.86F
WASKISH        LGT RAIN  61  57  88 E14G22    29.78F
BIG FORK       LGT RAIN  61  57  88 E9        29.84F
LONGVILLE      CLOUDY    61  55  82 E7        29.81F
GRAND RAPIDS   CLOUDY    60  55  83 E10G16    29.85F
CRANE LAKE     CLOUDY    64  48  55 E5        29.90F
ORR            CLOUDY    64  50  59 CALM      29.85F
COOK           LGT RAIN  63  55  77 CALM      29.90S
WALKER         CLOUDY    61  56  83 E9G17     29.78F
$$
MNZ012-019>021-037-260000-
   Northeast Minnesota

CITY           SKY/WX    TMP DP  RH WIND       PRES   REMARKS
DULUTH         LGT RAIN  49  47  93 E18G26    29.92F FOG
ELY            CLOUDY    64  48  55 SE13      29.93R
HIBBING        CLOUDY    58  57  97 E12       29.87F
EVELETH        CLOUDY    57  54  88 E8        29.91F
DULUTH HARBOR  LGT RAIN  46  45  93 NE28      29.95F
TWO HARBORS    RAIN      54  48  82 NE12G21   29.94F
SILVER BAY     RAIN      52  46  82 N10G18    29.96S
GRAND MARAIS     N/A     47  42  83 NE10      29.97F
G MARAIS ARPRT CLOUDY    57  43  58 NE12      29.99S
$$
MNZ029>031-032-039>041-046>048-054>057-064-260000-
   West Central Minnesota

CITY           SKY/WX    TMP DP  RH WIND       PRES   REMARKS
FERGUS FALLS   SUNNY     72  61  68 W15       29.72R
WHEATON        MOSUNNY   79  63  57 W8        29.75S
MORRIS         MOSUNNY   79  57  47 SW17      29.73F
ALEXANDRIA     MOSUNNY   76  56  49 SW15      29.77S
ELBOW LAKE     PTSUNNY   73  60  62 SW13      29.74S
WADENA         CLOUDY    70  63  78 SE12      29.75R
GLENWOOD       SUNNY     77  61  57 SW15G22   29.77S
APPLETON       MOSUNNY   81  54  39 W17       29.74S
BENSON         MOSUNNY   79  55  44 W10       29.75S
ORTONVILLE     SUNNY     79  55  44 SW14      29.74S
MADISON        SUNNY     79  54  41 W16G22    29.76R
WILLMAR        FAIR      81  61  50 SW14G20   29.77S
$$
MNZ033>034-036-042>043-049>051-058-059-260000-
   Central Minnesota

CITY           SKY/WX    TMP DP  RH WIND       PRES   REMARKS
ST CLOUD       CLOUDY    74  66  76 SE9       29.78S
SAUK CENTRE    MOCLDY    73  66  77 S15       29.77R
PAYNESVILLE    PTSUNNY   74  65  71 SE7       29.77F
AITKIN         CLOUDY    64  54  68 E7        29.82S
PINE RIVER     PTSUNNY   61  55  82 E14G20    29.83F
BRAINERD       CLOUDY    61  57  87 VRB7      29.81F
STAPLES        CLOUDY    70  61  73 SE9G17    29.76F
LONG PRAIRIE   CLOUDY    66  64  94 N7        29.76S
LITTLE FALLS   CLOUDY    70  63  78 E12G17    29.77F
LITCHFIELD     SUNNY     77  68  73 SE3       29.78S
BUFFALO        MOSUNNY   76  63  64 SE5       29.79F
MAPLE LAKE     MOSUNNY   76  66  70 S5        29.80S
HUTCHINSON     CLOUDY    77  65  67 S7        29.79S
$$
MNZ037-044-045-052-053-260000-
   East Central Minnesota

CITY           SKY/WX    TMP DP  RH WIND       PRES   REMARKS
PRINCETON      MOSUNNY   73  66  78 NE8       29.80F
MORA           CLOUDY    61  55  82 E8        29.85S
CAMBRIDGE      PTSUNNY   72  61  68 E8        29.80S
RUSH CITY      CLOUDY    63  60  88 E9        29.83F
MOOSE LAKE     CLOUDY    48  45  87 NE8G21    29.86F
HINCKLEY       MOCLDY    61  57  88 NE7       29.85S
CLOQUET        CLOUDY    50  46  87 E16G22    29.91F
MCGREGOR       PTSUNNY   59  54  82 E13G18    29.85S
$$
MNZ071>073-080-081-089-090-097-098-260000-
   Southwest Minnesota

CITY           SKY/WX    TMP DP  RH WIND       PRES   REMARKS
MONTEVIDEO     SUNNY     82  55  39 W10G17    29.77F
GRANITE FALLS  MOSUNNY   82  59  45 SW9G22    29.78S
CANBY          SUNNY     81  60  48 SW13      29.77F
MARSHALL       PTSUNNY   79  60  52 SW15      29.78S
REDWOOD FALLS  SUNNY     79  58  48 SW14G22   29.77S
OLIVIA         MOSUNNY   75  59  57 SW10      29.76F
PIPESTONE      MOSUNNY   77  61  57 W10       29.81S
WINDOM         MOSUNNY   79  61  53 CALM      29.80F
WORTHINGTON    SUNNY     78  61  55 W12       29.81F
JACKSON        SUNNY     81  54  39 W8        29.82F
TRACY          MOSUNNY   79  61  53 SW13      29.80S
SLAYTON        MOSUNNY   77  57  49 SW15      29.81F
$$
MNZ065>067-074>077-082>085-091>093-260000-
   South Central Minnesota

CITY           SKY/WX    TMP DP  RH WIND       PRES   REMARKS
MANKATO        SUNNY     79  61  53 SW7       29.78F
NEW ULM        MOSUNNY   79  61  53 SW10      29.78S
ST JAMES       SUNNY     75  54  46 SW13      29.80S
FAIRMONT       MOSUNNY   81  48  32 W16       29.80S
GLENCOE        MOSUNNY   79  68  69 SE6       29.78F
FARIBAULT      CLOUDY    79  63  57 SW7       29.80F
OWATONNA       CLOUDY    79  63  57 SW10G16   29.80F
WASECA         CLOUDY    77  63  61 S7        29.80F
ALBERT LEA     CLOUDY    79  59  50 SW6       29.80F
$$
MNZ078>079-086>088-094>096-260000-
   Southeast Minnesota

CITY           SKY/WX    TMP DP  RH WIND       PRES   REMARKS
ROCHESTER      MOSUNNY   74  66  76 SW13      29.82F
RED WING       PTSUNNY   72  64  78 CALM      29.79S
STANTON        PTSUNNY   75  64  69 W6        29.78F
DODGE CENTER   PTSUNNY   73  66  78 SW10      29.82S
WINONA         MOSUNNY   73  63  68 SW6       29.81S
AUSTIN         PTSUNNY   77  63  61 SW12      29.81F
PRESTON        PTSUNNY   73  63  69 S10       29.84S
$$
ABBREVIATIONS USED IN REMARKS
   TC - TEMPERATURES IN CELSIUS
  WCI - WIND CHILL INDEX
   HX - HEAT INDEX
  VSB - VISIBILITY
$$




USA.gov is the U.S. government's official web portal to all federal, state and local government web resources and services.